Погода в Селеби-Пхикве

Ботсвана     21°58′28″S   27°50′22″E
темп.,
°C
ветер,
м/с
пор.,
м/с
влажн.,
%
обл.,
%
осадки,
мм/ч
давл.,
гПа
погр.,
м
22 октября, пт
пт2223:00+22в5113399 0.0 1015516
02:00+21в41136100 0.0 1013463
05:00+20всв51142100 0.0 1013478
08:00+24св463382 0.0 1015645
11:00+32сз582179 0.0 10112851
14:00+34зсз5822100 0.0 10083677
17:00+32сз362414 0.0 10061647
20:00+27ссв2335100 0.0 100848
23 октября, сб
сб2323:00+27всв123581 0.0 100955
02:00+25всв233616 0.0 100863
05:00+22с11430 0.0 100911
08:00+30ссв11292 0.0 1011400
11:00+36сз36192 0.0 10083411
14:00+38сз961644 0.0 10043752
17:00+38с47152 0.0 10023268
20:00+32юв2221100 0.0 100640
24 октября, вс
вс2423:00+29всв383112 0.1 1008345
02:00+25юз33394 0.1 100838
05:00+23ю372940 0.0 1011144
08:00+30юв3415100 0.0 1012419
11:00+30в9103314 0.0 10121296
14:00+31всв99315 0.0 10111578
17:00+29в793682 0.3 10111789
20:00+23в11155651 5.2 1015940
25 октября, пн
пн2523:00+18в11176959 0.1 1018814
02:00+17в81574100 0.1 1018903
05:00+15в81476100 0.0 1020867
08:00+16в81477100 0.0 1022889
11:00+16всв71178100 0.3 1023908
14:00+17в8107699 0.7 1020775
17:00+16всв71079100 0.0 1017791
20:00+16в5880100 0.1 1020703
26 октября, вт
вт2623:00+15вюв5887100 0.7 1022652
02:00+15св81489100 0.8 1017526
05:00+15в51286100 0.0 1019764
08:00+16в61286100 0.1 1020706
11:00+20всв6870100 0.0 1019925
14:00+25в555120 0.0 10151219
17:00+25вюв55520 0.0 1014884
20:00+21вюв49660 0.0 1016350